SB KEPS @ AMSAT $ORB14058.O Orbital Elements 14058.OSCAR
HR AMSAT ORBITAL ELEMENTS FOR OSCAR SATELLITES FROM WA5QGD FORT WORTH,TX February 27, 2014 BID: ORB14058.O TO ALL RADIO AMATEURS BT
Satellite: AO-07 Catalog number: 07530 Epoch time: 14058.50495721 Element set: 904 Inclination: 101.4620 deg RA of node: 043.9943 deg Eccentricity: 0.0012157 Arg of perigee: 147.8036 deg Mean anomaly: 007.8748 deg Mean motion: 12.53602678 rev/day Decay rate: -5.4e-07 rev/day^2 Epoch rev: 79777 Checksum: 309
Satellite: FO-29 Catalog number: 24278 Epoch time: 14057.68674848 Element set: 318 Inclination: 098.5210 deg RA of node: 086.7630 deg Eccentricity: 0.0350055 Arg of perigee: 224.1944 deg Mean anomaly: 277.4691 deg Mean motion: 13.53016820 rev/day Decay rate: -3.4e-07 rev/day^2 Epoch rev: 86572 Checksum: 325
Satellite: SO-33 Catalog number: 25509 Epoch time: 14057.45221847 Element set: 698 Inclination: 031.4349 deg RA of node: 067.7422 deg Eccentricity: 0.0350529 Arg of perigee: 224.3332 deg Mean anomaly: 261.5401 deg Mean motion: 14.29320340 rev/day Decay rate: 1.033e-05 rev/day^2 Epoch rev: 80129 Checksum: 278
Satellite: RS-22 Catalog number: 27939 Epoch time: 14058.75487636 Element set: 261 Inclination: 097.8019 deg RA of node: 238.3903 deg Eccentricity: 0.0014089 Arg of perigee: 094.0427 deg Mean anomaly: 266.2391 deg Mean motion: 14.64925098 rev/day Decay rate: 1.788e-05 rev/day^2 Epoch rev: 55670 Checksum: 350
Satellite: VO-52 Catalog number: 28650 Epoch time: 14058.87866237 Element set: 671 Inclination: 097.5609 deg RA of node: 069.3467 deg Eccentricity: 0.0026319 Arg of perigee: 155.3110 deg Mean anomaly: 204.9372 deg Mean motion: 14.84852723 rev/day Decay rate: 5.905e-05 rev/day^2 Epoch rev: 47700 Checksum: 332
Satellite: HO-68 Catalog number: 36122 Epoch time: 14058.81278563 Element set: 364 Inclination: 100.2668 deg RA of node: 113.9606 deg Eccentricity: 0.0007892 Arg of perigee: 128.6472 deg Mean anomaly: 231.5348 deg Mean motion: 13.16312162 rev/day Decay rate: -4.3e-07 rev/day^2 Epoch rev: 20204 Checksum: 283
Satellite: AO-73 Catalog number: 39444 Epoch time: 14057.67249777 Element set: 75 Inclination: 097.7866 deg RA of node: 132.0770 deg Eccentricity: 0.0061954 Arg of perigee: 241.4602 deg Mean anomaly: 118.0366 deg Mean motion: 14.77603682 rev/day Decay rate: 3.648e-05 rev/day^2 Epoch rev: 1314 Checksum: 327
/EX SB KEPS @ AMSAT $ORB14058.D Orbital Elements 14058.MICROS
HR AMSAT ORBITAL ELEMENTS FOR THE MICROSATS FROM WA5QGD FORT WORTH,TX February 27, 2014 BID: ORB14058.D TO ALL RADIO AMATEURS BT
Satellite: UO-11 Catalog number: 14781 Epoch time: 14058.61647949 Element set: 427 Inclination: 097.8658 deg RA of node: 120.8178 deg Eccentricity: 0.0009378 Arg of perigee: 170.0299 deg Mean anomaly: 190.1101 deg Mean motion: 14.81338945 rev/day Decay rate: 1.394e-05 rev/day^2 Epoch rev: 61174 Checksum: 329
Satellite: AO-16 Catalog number: 20439 Epoch time: 14057.79201231 Element set: 965 Inclination: 098.4992 deg RA of node: 357.2603 deg Eccentricity: 0.0012007 Arg of perigee: 123.5601 deg Mean anomaly: 265.8626 deg Mean motion: 14.32290389 rev/day Decay rate: 2.75e-06 rev/day^2 Epoch rev: 25868 Checksum: 311
Satellite: LO-19 Catalog number: 20442 Epoch time: 14058.41652492 Element set: 903 Inclination: 098.4698 deg RA of node: 358.8608 deg Eccentricity: 0.0013045 Arg of perigee: 112.4829 deg Mean anomaly: 247.7738 deg Mean motion: 14.32496343 rev/day Decay rate: 3.01e-06 rev/day^2 Epoch rev: 25897 Checksum: 329
Satellite: AO-27 Catalog number: 22825 Epoch time: 14057.89258346 Element set: 606 Inclination: 098.6514 deg RA of node: 004.6331 deg Eccentricity: 0.0007341 Arg of perigee: 258.5351 deg Mean anomaly: 148.0077 deg Mean motion: 14.29663559 rev/day Decay rate: 2.96e-06 rev/day^2 Epoch rev: 6502 Checksum: 313
Satellite: IO-26 Catalog number: 22826 Epoch time: 14058.46161149 Element set: 364 Inclination: 098.6456 deg RA of node: 005.4360 deg Eccentricity: 0.0007944 Arg of perigee: 248.6926 deg Mean anomaly: 111.3408 deg Mean motion: 14.29958700 rev/day Decay rate: 3.07e-06 rev/day^2 Epoch rev: 6523 Checksum: 307
Satellite: GO-32 Catalog number: 25397 Epoch time: 14058.51539804 Element set: 287 Inclination: 098.4555 deg RA of node: 020.6769 deg Eccentricity: 0.0000237 Arg of perigee: 205.5330 deg Mean anomaly: 271.6780 deg Mean motion: 14.23408825 rev/day Decay rate: 1.77e-06 rev/day^2 Epoch rev: 81226 Checksum: 309
Satellite: NO-44 Catalog number: 26931 Epoch time: 14057.75527566 Element set: 544 Inclination: 067.0530 deg RA of node: 323.2135 deg Eccentricity: 0.0005469 Arg of perigee: 272.6096 deg Mean anomaly: 087.4379 deg Mean motion: 14.30049350 rev/day Decay rate: 2.55e-06 rev/day^2 Epoch rev: 64781 Checksum: 313
Satellite: SO-50 Catalog number: 27607 Epoch time: 14058.55513718 Element set: 316 Inclination: 064.5560 deg RA of node: 206.4767 deg Eccentricity: 0.0035379 Arg of perigee: 051.4832 deg Mean anomaly: 308.9920 deg Mean motion: 14.73452324 rev/day Decay rate: 2.246e-05 rev/day^2 Epoch rev: 60133 Checksum: 300
Satellite: CO-55 Catalog number: 27844 Epoch time: 14058.48342168 Element set: 866 Inclination: 098.7005 deg RA of node: 068.8343 deg Eccentricity: 0.0009093 Arg of perigee: 226.5754 deg Mean anomaly: 289.6688 deg Mean motion: 14.21403345 rev/day Decay rate: 4.86e-06 rev/day^2 Epoch rev: 55299 Checksum: 354
Satellite: CO-57 Catalog number: 27848 Epoch time: 14058.02360045 Element set: 807 Inclination: 098.7096 deg RA of node: 068.0315 deg Eccentricity: 0.0008870 Arg of perigee: 234.8802 deg Mean anomaly: 186.8496 deg Mean motion: 14.21103462 rev/day Decay rate: 4.43e-06 rev/day^2 Epoch rev: 55285 Checksum: 318
Satellite: AO-51 Catalog number: 28375 Epoch time: 14058.68524427 Element set: 782 Inclination: 098.2393 deg RA of node: 009.3995 deg Eccentricity: 0.0082256 Arg of perigee: 324.0395 deg Mean anomaly: 156.7025 deg Mean motion: 14.41293993 rev/day Decay rate: 6.07e-06 rev/day^2 Epoch rev: 50813 Checksum: 333
Satellite: CP3 Catalog number: 31129 Epoch time: 14058.17947786 Element set: 684 Inclination: 097.9226 deg RA of node: 041.8235 deg Eccentricity: 0.0098851 Arg of perigee: 354.5592 deg Mean anomaly: 133.2434 deg Mean motion: 14.54297171 rev/day Decay rate: 3.840e-05 rev/day^2 Epoch rev: 36404 Checksum: 327
Satellite: CO-65 Catalog number: 32785 Epoch time: 14058.80885760 Element set: 880 Inclination: 097.7141 deg RA of node: 113.6477 deg Eccentricity: 0.0014217 Arg of perigee: 183.0784 deg Mean anomaly: 228.1494 deg Mean motion: 14.84766548 rev/day Decay rate: 4.530e-05 rev/day^2 Epoch rev: 31579 Checksum: 345
Satellite: PRISM Catalog number: 33493 Epoch time: 14058.80663522 Element set: 683 Inclination: 098.2403 deg RA of node: 229.9396 deg Eccentricity: 0.0018534 Arg of perigee: 081.4683 deg Mean anomaly: 278.8621 deg Mean motion: 14.88121042 rev/day Decay rate: 7.722e-05 rev/day^2 Epoch rev: 27590 Checksum: 320
Satellite: SOHLA-1 Catalog number: 33496 Epoch time: 14056.83567825 Element set: 283 Inclination: 098.1552 deg RA of node: 177.6054 deg Eccentricity: 0.0005741 Arg of perigee: 227.3297 deg Mean anomaly: 298.3998 deg Mean motion: 14.70609077 rev/day Decay rate: 8.53e-06 rev/day^2 Epoch rev: 27314 Checksum: 340
Satellite: TISAT-1 Catalog number: 36799 Epoch time: 14058.81401404 Element set: 947 Inclination: 098.0189 deg RA of node: 150.0531 deg Eccentricity: 0.0013252 Arg of perigee: 322.0002 deg Mean anomaly: 038.0284 deg Mean motion: 14.84746550 rev/day Decay rate: 4.911e-05 rev/day^2 Epoch rev: 19648 Checksum: 288
Satellite: STUDSAT Catalog number: 36801 Epoch time: 14058.80676119 Element set: 778 Inclination: 098.0339 deg RA of node: 156.1453 deg Eccentricity: 0.0010090 Arg of perigee: 290.1636 deg Mean anomaly: 226.6935 deg Mean motion: 14.93149202 rev/day Decay rate: 2.8972e-04 rev/day^2 Epoch rev: 19678 Checksum: 324
Satellite: ALMASAT-1 Catalog number: 38078 Epoch time: 14058.14566475 Element set: 944 Inclination: 069.4743 deg RA of node: 322.9391 deg Eccentricity: 0.0634675 Arg of perigee: 177.6032 deg Mean anomaly: 297.4325 deg Mean motion: 14.40045666 rev/day Decay rate: 4.4916e-04 rev/day^2 Epoch rev: 10573 Checksum: 335
Satellite: XATCOBEO Catalog number: 38082 Epoch time: 14058.86289166 Element set: 988 Inclination: 069.4507 deg RA of node: 254.0517 deg Eccentricity: 0.0381000 Arg of perigee: 140.2566 deg Mean anomaly: 345.4563 deg Mean motion: 15.05109265 rev/day Decay rate: 2.11925e-03 rev/day^2 Epoch rev: 10766 Checksum: 311
Satellite: CUBEBUG-1 Catalog number: 39153 Epoch time: 14058.71562747 Element set: 893 Inclination: 098.0490 deg RA of node: 139.2385 deg Eccentricity: 0.0017796 Arg of perigee: 347.1558 deg Mean anomaly: 012.9192 deg Mean motion: 14.77211485 rev/day Decay rate: 2.746e-05 rev/day^2 Epoch rev: 4539 Checksum: 336
Satellite: ESTCUBE-1 Catalog number: 39161 Epoch time: 14058.89365030 Element set: 866 Inclination: 098.1038 deg RA of node: 140.5890 deg Eccentricity: 0.0010557 Arg of perigee: 030.2635 deg Mean anomaly: 329.9167 deg Mean motion: 14.69603317 rev/day Decay rate: 2.183e-05 rev/day^2 Epoch rev: 4354 Checksum: 302
/EX SB KEPS @ AMSAT $ORB14058.W Orbital Elements 14058.WEATHER
HR AMSAT ORBITAL ELEMENTS FOR WEATHER SATELLITES FROM WA5QGD FORT WORTH,TX February 27, 2014 BID: ORB14058.W TO ALL RADIO AMATEURS BT
Satellite: NOAA-10 Catalog number: 16969 Epoch time: 14057.54023856 Element set: 684 Inclination: 098.5229 deg RA of node: 084.5236 deg Eccentricity: 0.0011872 Arg of perigee: 214.7111 deg Mean anomaly: 298.5731 deg Mean motion: 14.27721634 rev/day Decay rate: 1.60e-06 rev/day^2 Epoch rev: 42823 Checksum: 307
Satellite: NOAA-11 Catalog number: 19531 Epoch time: 14057.28559212 Element set: 706 Inclination: 098.6878 deg RA of node: 139.0869 deg Eccentricity: 0.0010295 Arg of perigee: 252.1865 deg Mean anomaly: 107.8186 deg Mean motion: 14.15058894 rev/day Decay rate: 1.07e-06 rev/day^2 Epoch rev: 31205 Checksum: 318
